Location: D?uga
(50.2667°N, 19.7833°E)
Time: 21:53:14
(UTC+00:00)

DELTA 2 R/B (1) - Pass Details

Date: 23 May 2024
Orbit: 789 x 801 km, 39.6° (Epoch: 22 June)

Event Time Altitude Azimuth Distance (km) Brightness Sun altitude
Exits shadow 00:26:16 24° 208° (SSW) 1,602 4.5 -15.1°
Maximum altitude 00:27:49 27° 182° (S) 1,475 4.5 -15.0°
Drops below altitude 10° 00:32:25 10° 125° (SE) 2,348 5.9 -14.7°
Sets 00:35:13 0° 114° (ESE) 3,276 6.8 -14.5°
